When you browse on this site, cookies collect data to enhance your experience and personalize the content and advertising you see.
Visit our Privacy Policy to learn more. By continuing to use the site, you agree to this use of cookies and data.
  • In Hungary
  • List of Countries
  • For 7 days
  • Water Temperature
  • Satellite Maps
  • Weather Map
  • News
  • Weather Widgets
  • user-avatar
    Login

    Hourly Weather Volnaya Solyanka

    Today, 21 November, Wednesday

    Time Temperature Precipitation Wind Pressure Humidity
    00:00 -4°C° 0 mm 2 mps 753 mmHg 90%
    01:00 -5°C° 0 mm 2 mps 752 mmHg 91%
    02:00 -5°C° 0 mm 2 mps 752 mmHg 91%
    03:00 -6°C° 0 mm 2 mps 752 mmHg 93%
    04:00 -6°C° 0 mm 3 mps 751 mmHg 93%
    05:00 -6°C° 0 mm 3 mps 751 mmHg 93%
    06:00 -7°C° 0 mm 4 mps 750 mmHg 92%
    07:00 -7°C° 0.1 mm 4 mps 750 mmHg 91%
    08:00 -5°C° 0.1 mm 4 mps 749 mmHg 90%
    09:00 -6°C° 0 mm 5 mps 748 mmHg 89%
    10:00 -5°C° 0.3 mm 5 mps 748 mmHg 87%
    11:00 -5°C° 0.3 mm 5 mps 747 mmHg 86%
    12:00 -5°C° 0.3 mm 6 mps 747 mmHg 84%
    13:00 -5°C° 0.1 mm 5 mps 747 mmHg 84%
    14:00 -5°C° 0.1 mm 5 mps 746 mmHg 83%
    15:00 -5°C° 0 mm 5 mps 745 mmHg 83%
    16:00 -5°C° 0 mm 5 mps 745 mmHg 85%
    17:00 -6°C° 0 mm 5 mps 745 mmHg 87%
    18:00 -6°C° 0 mm 5 mps 745 mmHg 89%
    19:00 -6°C° 0 mm 5 mps 745 mmHg 89%
    20:00 -6°C° 0 mm 5 mps 745 mmHg 89%
    21:00 -6°C° 0 mm 5 mps 745 mmHg 89%
    22:00 -7°C° 0 mm 5 mps 745 mmHg 89%
    23:00 -7°C° 0 mm 5 mps 745 mmHg 88%

    Tomorrow, 22 November, Thursday

    Time Temperature Precipitation Wind Pressure Humidity
    00:00 -8°C° 0 mm 5 mps 745 mmHg 88%
    01:00 -8°C° 0 mm 5 mps 745 mmHg 89%
    02:00 -8°C° 0 mm 4 mps 745 mmHg 90%
    03:00 -9°C° 0 mm 4 mps 745 mmHg 90%
    04:00 -9°C° 0 mm 4 mps 746 mmHg 91%
    05:00 -9°C° 0 mm 4 mps 746 mmHg 91%
    06:00 -9°C° 0 mm 4 mps 746 mmHg 91%
    07:00 -9°C° 0 mm 4 mps 746 mmHg 90%
    08:00 -9°C° 0 mm 4 mps 746 mmHg 90%
    09:00 -8°C° 0 mm 4 mps 746 mmHg 89%
    10:00 -8°C° 0 mm 4 mps 745 mmHg 87%
    11:00 -7°C° 0 mm 4 mps 745 mmHg 84%
    12:00 -7°C° 0 mm 4 mps 745 mmHg 82%
    13:00 -7°C° 0 mm 4 mps 744 mmHg 82%
    14:00 -7°C° 0 mm 4 mps 744 mmHg 83%
    15:00 -7°C° 0 mm 5 mps 743 mmHg 83%
    16:00 -7°C° 0 mm 5 mps 743 mmHg 83%
    17:00 -8°C° 0 mm 5 mps 742 mmHg 82%
    18:00 -9°C° 0 mm 6 mps 742 mmHg 82%
    19:00 -9°C° 0.1 mm 6 mps 741 mmHg 83%
    20:00 -9°C° 0.1 mm 6 mps 740 mmHg 83%
    21:00 -9°C° 0.1 mm 6 mps 740 mmHg 84%
    22:00 -9°C° 0.2 mm 6 mps 739 mmHg 86%
    23:00 -8°C° 0.2 mm 6 mps 738 mmHg 88%

    Day after tomorrow, 23 November, Friday

    Time Temperature Precipitation Wind Pressure Humidity
    00:00 -8°C° 0.2 mm 6 mps 738 mmHg 90%
    01:00 -8°C° 0.4 mm 6 mps 737 mmHg 90%
    02:00 -8°C° 0.4 mm 6 mps 736 mmHg 91%
    03:00 -8°C° 0.4 mm 6 mps 736 mmHg 92%
    04:00 -8°C° 0.6 mm 6 mps 736 mmHg 92%
    05:00 -8°C° 0.6 mm 6 mps 735 mmHg 91%
    06:00 -8°C° 0.6 mm 6 mps 735 mmHg 90%
    07:00 -8°C° 0.3 mm 7 mps 736 mmHg 86%
    08:00 -10°C° 0.3 mm 8 mps 737 mmHg 82%
    09:00 -11°C° 0.3 mm 9 mps 738 mmHg 78%
    10:00 -12°C° 0 mm 9 mps 739 mmHg 76%
    11:00 -12°C° 0 mm 9 mps 740 mmHg 74%
    12:00 -12°C° 0 mm 9 mps 741 mmHg 72%
    13:00 -13°C° 0 mm 8 mps 743 mmHg 73%
    14:00 -13°C° 0 mm 8 mps 744 mmHg 74%
    15:00 -13°C° 0 mm 7 mps 745 mmHg 75%
    16:00 -13°C° 0 mm 7 mps 746 mmHg 78%
    17:00 -13°C° 0 mm 7 mps 747 mmHg 81%
    18:00 -12°C° 0 mm 6 mps 748 mmHg 84%
    19:00 -12°C° 0 mm 6 mps 749 mmHg 84%
    20:00 -12°C° 0 mm 6 mps 749 mmHg 84%
    21:00 -12°C° 0 mm 6 mps 750 mmHg 84%
    22:00 -14°C° 0 mm 6 mps 751 mmHg 85%
    23:00 -13°C° 0 mm 5 mps 751 mmHg 87%

    24 November, Saturday

    Time Temperature Precipitation Wind Pressure Humidity
    00:00 -14°C° 0 mm 5 mps 752 mmHg 88%
    01:00 -13°C° 0 mm 5 mps 752 mmHg 88%
    02:00 -13°C° 0 mm 5 mps 753 mmHg 88%
    03:00 -13°C° 0 mm 5 mps 753 mmHg 88%
    04:00 -13°C° 0 mm 5 mps 753 mmHg 87%
    05:00 -12°C° 0 mm 5 mps 753 mmHg 87%
    06:00 -11°C° 0 mm 5 mps 753 mmHg 86%
    07:00 -11°C° 0 mm 5 mps 754 mmHg 85%
    08:00 -11°C° 0 mm 5 mps 754 mmHg 84%
    09:00 -11°C° 0 mm 5 mps 754 mmHg 82%
    10:00 -11°C° 0 mm 5 mps 754 mmHg 82%
    11:00 -10°C° 0 mm 6 mps 754 mmHg 82%
    12:00 -9°C° 0 mm 6 mps 753 mmHg 81%
    13:00 -9°C° 0 mm 6 mps 753 mmHg 81%
    14:00 -9°C° 0 mm 6 mps 753 mmHg 82%
    15:00 -9°C° 0 mm 7 mps 753 mmHg 82%
    16:00 -9°C° 0 mm 7 mps 753 mmHg 81%
    17:00 -9°C° 0 mm 7 mps 753 mmHg 80%
    18:00 -9°C° 0 mm 7 mps 753 mmHg 79%
    19:00 -8°C° 0 mm 7 mps 752 mmHg 80%
    20:00 -8°C° 0 mm 7 mps 752 mmHg 80%
    21:00 -8°C° 0 mm 7 mps 752 mmHg 81%
    22:00 -8°C° 0 mm 6 mps 752 mmHg 82%
    23:00 -8°C° 0 mm 6 mps 752 mmHg 83%

    25 November, Sunday

    Time Temperature Precipitation Wind Pressure Humidity
    00:00 -8°C° 0 mm 6 mps 752 mmHg 83%
    01:00 -8°C° 0 mm 6 mps 752 mmHg 83%
    02:00 -8°C° 0 mm 7 mps 752 mmHg 83%
    03:00 -8°C° 0 mm 7 mps 752 mmHg 82%
    04:00 -9°C° 0 mm 7 mps 751 mmHg 82%
    05:00 -9°C° 0 mm 7 mps 751 mmHg 82%
    06:00 -9°C° 0 mm 7 mps 751 mmHg 81%
    07:00 -9°C° 0.1 mm 7 mps 750 mmHg 82%
    08:00 -8°C° 0.1 mm 7 mps 750 mmHg 83%
    09:00 -8°C° 0.1 mm 7 mps 750 mmHg 84%
    10:00 -8°C° 0.2 mm 7 mps 750 mmHg 85%
    11:00 -8°C° 0.2 mm 7 mps 750 mmHg 85%
    12:00 -7°C° 0.2 mm 7 mps 750 mmHg 86%
    13:00 -7°C° 0.1 mm 7 mps 751 mmHg 87%
    14:00 -6°C° 0.1 mm 6 mps 751 mmHg 88%
    15:00 -5°C° 0.1 mm 5 mps 751 mmHg 89%
    16:00 -6°C° 0 mm 5 mps 751 mmHg 90%
    17:00 -5°C° 0 mm 4 mps 752 mmHg 91%
    18:00 -5°C° 0 mm 4 mps 752 mmHg 92%
    19:00 -5°C° 0 mm 3 mps 752 mmHg 93%
    20:00 -6°C° 0 mm 3 mps 752 mmHg 94%
    21:00 -6°C° 0 mm 3 mps 752 mmHg 95%
    22:00 -5°C° 0 mm 2 mps 752 mmHg 95%
    23:00 -5°C° 0 mm 2 mps 752 mmHg 95%

    26 November, Monday

    Time Temperature Precipitation Wind Pressure Humidity
    00:00 -5°C° 0 mm 2 mps 752 mmHg 96%
    01:00 -5°C° 0.1 mm 2 mps 752 mmHg 96%
    02:00 -6°C° 0.1 mm 2 mps 752 mmHg 96%
    03:00 -6°C° 0.1 mm 2 mps 752 mmHg 96%
    04:00 -5°C° 0.1 mm 2 mps 751 mmHg 96%
    05:00 -5°C° 0.1 mm 2 mps 751 mmHg 95%
    06:00 -5°C° 0.1 mm 2 mps 751 mmHg 95%
    07:00 -6°C° 0.2 mm 3 mps 750 mmHg 94%
    08:00 -7°C° 0.2 mm 4 mps 750 mmHg 93%
    09:00 -5°C° 0.2 mm 4 mps 750 mmHg 92%
    10:00 -5°C° 0.1 mm 4 mps 749 mmHg 91%
    11:00 -5°C° 0.1 mm 5 mps 749 mmHg 90%
    12:00 -5°C° 0.1 mm 5 mps 748 mmHg 89%
    13:00 -4°C° 0.2 mm 5 mps 748 mmHg 89%
    14:00 -4°C° 0.2 mm 5 mps 747 mmHg 90%
    15:00 -4°C° 0.2 mm 5 mps 747 mmHg 90%
    16:00 -4°C° 0.3 mm 6 mps 746 mmHg 90%
    17:00 -4°C° 0.3 mm 6 mps 746 mmHg 91%
    18:00 -4°C° 0.3 mm 6 mps 746 mmHg 91%
    19:00 -4°C° 0.6 mm 6 mps 745 mmHg 92%
    20:00 -4°C° 0.6 mm 6 mps 745 mmHg 92%
    21:00 -4°C° 0.6 mm 6 mps 745 mmHg 93%
    22:00 -4°C° 0.3 mm 6 mps 744 mmHg 93%
    23:00 -4°C° 0.3 mm 5 mps 744 mmHg 93%
    Show more